DB6TOM Weather Reports


time (UTC)temp
C
wind
direction
speed
KPH
gust
KPH
rain 1hr
cm
rain 24hr
cm
rain mn
cm
humidity
%
barometer
mb
20191019143957 14 174 3.2 9.7 0.00 0.33 0.18 82 1009.1
20191019143453 14 210 4.8 12.9 0.00 0.33 0.18 83 1009.1
20191019142951 14 182 3.2 12.9 0.00 0.33 0.18 83 1009.1
20191019142445 14 185 3.2 11.3 0.00 0.33 0.18 84 1009.1
20191019141945 14 174 4.8 11.3 0.00 0.33 0.18 83 1009.1
20191019141445 13 172 4.8 11.3 0.00 0.33 0.18 84 1009.2
20191019140945 13 234 4.8 11.3 0.00 0.33 0.18 84 1009.2
20191019140445 13 188 4.8 9.7 0.00 0.33 0.18 85 1009.2
20191019135945 13 182 4.8 17.7 0.00 0.33 0.18 85 1009.2
20191019135445 13 195 4.8 17.7 0.00 0.33 0.18 85 1009.1
20191019134939 13 182 4.8 9.7 0.00 0.33 0.18 86 1009.1
20191019133937 13 165 4.8 11.3 0.00 0.33 0.18 86 1009.3
20191019133437 13 147 4.8 11.3 0.00 0.33 0.18 87 1009.3
20191019132935 13 161 4.8 11.3 0.00 0.33 0.18 87 1009.5
20191019132435 13 177 4.8 9.7 0.00 0.33 0.18 87 1009.5
20191019131933 13 144 4.8 9.7 0.00 0.33 0.18 87 1009.5
20191019131433 13 174 4.8 8.0 0.00 0.33 0.18 88 1009.7
20191019130933 13 201 3.2 8.0 0.00 0.33 0.18 88 1009.7
20191019130431 13 218 3.2 8.0 0.00 0.33 0.18 89 1009.7
20191019125925 13 223 3.2 8.0 0.00 0.33 0.18 89 1009.9
20191019125425 13 216 3.2 9.7 0.00 0.33 0.18 89 1009.8
20191019124924 13 245 4.8 9.7 0.00 0.33 0.18 89 1009.8
20191019124424 13 205 4.8 9.7 0.00 0.33 0.18 90 1010.0
20191019123921 13 230 4.8 11.3 0.00 0.33 0.18 90 1010.0
20191019123421 13 233 4.8 11.3 0.00 0.33 0.18 90 1010.0
20191019122921 13 221 4.8 9.7 0.00 0.33 0.18 90 1010.1
20191019122421 12 217 4.8 9.7 0.00 0.33 0.18 90 1010.1
20191019121917 12 221 4.8 9.7 0.00 0.33 0.18 91 1010.1
20191019121409 12 223 4.8 9.7 0.00 0.33 0.18 91 1010.0
20191019120905 12 243 4.8 9.7 0.00 0.33 0.18 91 1010.0
20191019120405 12 246 4.8 9.7 0.00 0.33 0.18 91 1010.0
20191019115859 12 222 4.8 9.7 0.00 0.33 0.18 91 1010.0
20191019115357 12 220 4.8 9.7 0.00 0.33 0.18 92 1010.0
20191019114857 12 209 4.8 11.3 0.03 0.33 0.18 92 1010.0
20191019114348 12 203 4.8 11.3 0.03 0.33 0.18 92 1010.0
20191019113849 12 221 4.8 11.3 0.03 0.33 0.18 92 1010.0
20191019113346 12 219 4.8 11.3 0.03 0.33 0.18 92 1010.0
20191019112843 12 215 4.8 14.5 0.03 0.33 0.18 93 1010.2
20191019112343 12 238 4.8 14.5 0.03 0.33 0.18 93 1010.2
20191019111842 12 180 3.2 8.0 0.03 0.33 0.18 93 1010.2
20191019111341 12 181 4.8 9.7 0.03 0.33 0.18 93 1010.4
20191019110832 12 184 4.8 9.7 0.03 0.33 0.18 93 1010.4
20191019110328 12 161 1.6 6.4 0.03 0.33 0.18 94 1010.3
20191019105828 12 150 1.6 6.4 0.03 0.33 0.18 94 1010.4
20191019105328 12 162 1.6 6.4 0.03 0.33 0.18 94 1010.4
20191019104826 12 161 3.2 6.4 0.00 0.33 0.15 94 1010.4
20191019104322 12 146 3.2 6.4 0.03 0.33 0.15 94 1010.4
20191019103823 12 177 1.6 3.2 0.03 0.33 0.15 93 1010.4
20191019103322 12 177 1.6 4.8 0.03 0.33 0.15 93 1010.4
20191019102819 12 177 3.2 8.0 0.03 0.33 0.15 93 1010.4
20191019102319 12 178 3.2 8.0 0.03 0.33 0.15 93 1010.4
20191019101807 12 179 4.8 8.0 0.03 0.33 0.15 93 1010.4
20191019101257 12 164 4.8 8.0 0.03 0.33 0.15 93 1010.4
20191019100750 12 159 4.8 8.0 0.05 0.33 0.15 93 1010.4
20191019100245 12 166 4.8 9.7 0.05 0.33 0.15 94 1010.4
20191019095740 12 148 4.8 9.7 0.05 0.33 0.15 93 1010.5
20191019095234 12 149 3.2 9.7 0.05 0.33 0.15 94 1010.5
20191019094735 12 178 3.2 8.0 0.08 0.33 0.15 94 1010.5
20191019094232 12 169 3.2 8.0 0.08 0.30 0.15 94 1010.4
20191019093718 12 128 3.2 6.4 0.08 0.30 0.15 94 1010.4
20191019093218 12 151 3.2 6.4 0.10 0.30 0.15 94 1010.4
20191019092714 12 157 3.2 6.4 0.10 0.30 0.15 94 1010.5
20191019092210 12 202 3.2 6.4 0.13 0.30 0.15 94 1010.5
20191019091709 12 163 3.2 4.8 0.13 0.30 0.15 94 1010.5
20191019091208 12 155 1.6 4.8 0.13 0.30 0.15 94 1010.5
20191019090659 12 157 3.2 4.8 0.10 0.28 0.13 94 1010.5
20191019090152 12 156 3.2 6.4 0.10 0.28 0.13 94 1010.5
20191019085652 12 120 3.2 8.0 0.08 0.25 0.10 94 1010.7
20191019085152 12 153 3.2 8.0 0.05 0.23 0.08 94 1010.7
20191019084650 11 161 3.2 6.4 0.05 0.23 0.08 94 1010.7
20191019084150 11 149 3.2 6.4 0.05 0.23 0.05 94 1010.6
20191019083650 11 150 1.6 6.4 0.05 0.23 0.05 95 1010.6
20191019083150 11 187 1.6 8.0 0.03 0.20 0.05 95 1010.6
20191019082648 11 189 1.6 8.0 0.03 0.20 0.05 95 1010.4
20191019082150 11 194 1.6 6.4 0.00 0.18 0.03 95 1010.3
20191019081648 11 139 1.6 4.8 0.00 0.18 0.03 95 1010.3
20191019081144 11 139 1.6 4.8 0.00 0.18 0.03 95 1010.3
20191019080642 11 139 1.6 6.4 0.00 0.18 0.03 95 1010.3
20191019080141 11 139 1.6 6.4 0.00 0.18 0.03 96 1010.3
20191019075638 11 132 0.0 4.8 0.00 0.18 0.03 95 1010.7
20191019075139 11 135 0.0 0.0 0.00 0.18 0.03 96 1010.7
20191019074639 11 135 0.0 0.0 0.00 0.18 0.03 96 1010.6
20191019074138 11 135 0.0 0.0 0.00 0.18 0.03 96 1010.6
20191019073624 10 135 0.0 1.6 0.00 0.18 0.03 95 1010.6
20191019073107 10 135 1.6 6.4 0.00 0.18 0.03 96 1010.6
20191019072604 10 135 1.6 6.4 0.00 0.18 0.03 96 1010.3
20191019072104 10 148 1.6 4.8 0.00 0.18 0.03 96 1010.3
20191019071536 10 109 1.6 4.8 0.00 0.18 0.03 95 1010.3
20191019071032 10 109 1.6 4.8 0.00 0.18 0.03 95 1010.5
20191019070518 10 109 0.0 4.8 0.00 0.18 0.03 95 1010.5
20191019070012 10 57 0.0 3.2 0.00 0.18 0.03 95 1010.5
20191019065504 10 57 0.0 0.0 0.00 0.18 0.03 95 1010.5
20191019064948 10 57 0.0 0.0 0.00 0.18 0.03 95 1010.4
20191019064444 10 57 0.0 0.0 0.00 0.18 0.03 95 1010.1
20191019063940 10 57 0.0 0.0 0.03 0.18 0.03 95 1010.1
20191019063435 10 57 0.0 0.0 0.03 0.18 0.03 95 1010.1
20191019062908 10 57 0.0 0.0 0.03 0.18 0.03 95 1010.2
20191019062407 10 43 0.0 0.0 0.03 0.18 0.03 95 1010.2
20191019061844 10 200 0.0 0.0 0.03 0.18 0.03 95 1010.2
20191019061343 10 200 0.0 0.0 0.03 0.18 0.03 95 1010.1
20191019060828 10 200 0.0 3.2 0.03 0.18 0.03 95 1010.1
20191019060323 10 200 0.0 4.8 0.03 0.18 0.03 95 1010.1
20191019055815 10 200 0.0 4.8 0.03 0.18 0.03 95 1010.1
20191019055303 10 200 1.6 4.8 0.03 0.18 0.03 95 1010.1
20191019054804 10 200 1.6 4.8 0.03 0.18 0.03 95 1010.1
20191019054255 10 150 1.6 4.8 0.00 0.15 0.03 95 1010.1
20191019053755 10 150 1.6 4.8 0.00 0.15 0.00 95 1010.1
20191019053251 10 150 1.6 4.8 0.00 0.15 0.00 96 1010.1
20191019052751 10 150 0.0 4.8 0.00 0.15 0.00 96 1010.2
20191019052251 10 150 0.0 4.8 0.00 0.15 0.00 95 1010.2
20191019051741 9 150 0.0 0.0 0.00 0.15 0.00 95 1010.2
20191019051235 9 150 0.0 3.2 0.00 0.15 0.00 96 1010.1
20191019050731 9 150 0.0 3.2 0.00 0.15 0.00 96 1010.1
20191019050223 9 150 0.0 3.2 0.00 0.15 0.00 96 1010.1
20191019045717 9 150 1.6 6.4 0.00 0.15 0.00 96 1010.1
20191019045218 9 150 1.6 6.4 0.00 0.15 0.00 96 1010.1
20191019044716 9 221 0.0 0.0 0.00 0.15 0.00 96 1010.1
20191019044216 9 221 0.0 0.0 0.00 0.15 0.00 95 1010.0
20191019043708 9 221 0.0 0.0 0.00 0.15 0.00 95 1010.0
20191019043202 9 221 0.0 0.0 0.00 0.15 0.00 95 1010.0
20191019042656 9 221 0.0 0.0 0.00 0.15 0.00 95 1010.1
20191019042148 9 221 0.0 0.0 0.00 0.15 0.00 95 1010.1
20191019041637 9 221 0.0 0.0 0.00 0.15 0.00 95 1010.1
20191019041124 9 221 0.0 0.0 0.00 0.15 0.00 95 1010.3
20191019040614 9 221 0.0 0.0 0.00 0.15 0.00 95 1010.3
20191019040056 9 221 0.0 0.0 0.00 0.15 0.00 95 1010.3
20191019035547 9 221 0.0 0.0 0.00 0.15 0.00 95 1010.4
20191019035035 9 221 0.0 0.0 0.00 0.15 0.00 95 1010.4
20191019034529 9 221 0.0 0.0 0.00 0.15 0.00 95 1010.4
20191019034022 9 225 0.0 0.0 0.00 0.15 0.00 95 1010.4
20191019033523 9 225 0.0 0.0 0.00 0.15 0.00 95 1010.4
20191019033024 8 225 0.0 0.0 0.00 0.15 0.00 95 1010.4
20191019032510 8 225 0.0 0.0 0.00 0.15 0.00 95 1010.4
20191019032001 8 225 0.0 0.0 0.00 0.15 0.00 95 1010.4
20191019031442 8 225 0.0 0.0 0.00 0.15 0.00 95 1010.3
20191019030937 8 253 0.0 0.0 0.00 0.15 0.00 95 1010.3
20191019030429 8 253 0.0 0.0 0.00 0.15 0.00 95 1010.3
20191019025928 8 253 0.0 0.0 0.00 0.15 0.00 95 1010.4
20191019025413 8 253 0.0 0.0 0.00 0.15 0.00 95 1010.4
20191019024859 8 253 0.0 0.0 0.00 0.15 0.00 95 1010.4
20191019024359 8 253 0.0 0.0 0.00 0.15 0.00 95 1010.6
20191019023841 8 253 0.0 1.6 0.00 0.15 0.00 95 1010.6
20191019023333 8 253 1.6 4.8 0.00 0.15 0.00 95 1010.6
20191019022831 8 253 1.6 4.8 0.00 0.15 0.00 95 1010.6
20191019022329 8 211 0.0 0.0 0.00 0.15 0.00 95 1010.6
20191019021827 8 211 0.0 0.0 0.00 0.15 0.00 95 1010.6
20191019021314 8 211 0.0 0.0 0.00 0.15 0.00 95 1010.5
20191019020814 8 211 0.0 0.0 0.00 0.15 0.00 94 1010.5
20191019020257 8 211 0.0 0.0 0.00 0.15 0.00 94 1010.5
20191019015752 8 211 0.0 0.0 0.00 0.15 0.00 94 1010.7
20191019015241 8 211 0.0 0.0 0.00 0.15 0.00 94 1010.8
20191019014729 8 211 0.0 0.0 0.00 0.15 0.00 94 1010.8
20191019014228 8 211 0.0 0.0 0.00 0.15 0.00 94 1010.8
20191019013723 8 211 0.0 0.0 0.00 0.15 0.00 94 1010.8
20191019013214 8 211 0.0 0.0 0.00 0.15 0.00 94 1010.8
20191019012706 8 211 0.0 0.0 0.00 0.15 0.00 94 1010.9
20191019012159 8 211 0.0 0.0 0.00 0.15 0.00 94 1010.9
20191019011657 8 211 0.0 0.0 0.00 0.15 0.00 94 1010.9
20191019011145 8 211 0.0 0.0 0.00 0.15 0.00 94 1010.9
20191019010643 8 211 0.0 0.0 0.00 0.15 0.00 93 1010.9
20191019010131 8 211 0.0 0.0 0.00 0.15 0.00 93 1010.9
20191019005629 9 211 0.0 3.2 0.00 0.15 0.00 93 1010.8
20191019005122 9 211 1.6 4.8 0.00 0.15 0.00 93 1010.8
20191019004605 9 211 1.6 4.8 0.00 0.15 0.00 93 1010.8
20191019004104 9 211 0.0 4.8 0.00 0.15 0.00 93 1010.8
20191019003559 9 211 0.0 3.2 0.00 0.15 0.00 93 1010.8
20191019003058 9 211 0.0 1.6 0.00 0.15 0.00 93 1010.9
20191019002556 9 211 0.0 1.6 0.00 0.15 0.00 93 1010.9
20191019002048 9 211 0.0 1.6 0.00 0.15 0.00 93 1010.9
20191019001546 9 211 0.0 3.2 0.00 0.15 0.00 93 1010.9
20191019001045 10 211 0.0 3.2 0.00 0.15 0.00 93 1011.1
20191019000545 10 211 0.0 3.2 0.00 0.15 0.00 93 1011.1
20191019000009 10 211 0.0 4.8 0.00 0.15 0.00 93 1011.1
20191018235453 10 211 1.6 8.0 0.00 0.15 0.00 93 1010.9
20191018234947 10 210 0.0 8.0 0.00 0.15 0.00 93 1010.9
20191018234447 10 227 0.0 4.8 0.00 0.15 0.00 93 1010.9
20191018233941 10 227 0.0 4.8 0.00 0.15 0.00 92 1010.9
20191018233431 10 229 0.0 0.0 0.00 0.15 0.00 92 1010.9
20191018232927 10 229 0.0 0.0 0.00 0.15 0.00 92 1010.8
20191018232413 10 229 0.0 0.0 0.00 0.15 0.00 92 1010.8
20191018231904 10 229 0.0 0.0 0.00 0.15 0.00 92 1010.9
20191018231352 10 229 0.0 0.0 0.00 0.15 0.00 92 1010.9
20191018230848 10 229 0.0 0.0 0.00 0.15 0.00 93 1010.9
20191018230335 10 229 0.0 1.6 0.00 0.15 0.00 93 1010.9
20191018225756 10 229 1.6 8.0 0.00 0.15 0.00 93 1010.9
20191018225249 10 229 1.6 8.0 0.00 0.15 0.00 93 1010.9
20191018224748 10 219 3.2 8.0 0.00 0.15 0.00 93 1010.9
20191018224246 10 231 3.2 6.4 0.00 0.15 0.00 93 1010.9
20191018223747 10 255 1.6 6.4 0.00 0.15 0.00 93 1010.8
20191018223246 10 223 0.0 4.8 0.00 0.15 0.00 93 1010.8
20191018222736 10 235 0.0 3.2 0.00 0.15 0.00 92 1010.8
20191018222232 10 235 0.0 3.2 0.00 0.18 0.00 92 1010.8
20191018221730 10 235 0.0 0.0 0.00 0.18 0.00 92 1010.8
20191018221223 10 235 0.0 0.0 0.00 0.18 0.00 92 1010.9
20191018220714 10 235 0.0 1.6 0.00 0.18 0.00 92 1010.9
20191018220159 10 235 0.0 3.2 0.00 0.18 0.00 92 1010.9
20191018215659 10 235 0.0 4.8 0.00 0.18 0.18 92 1010.9
20191018215153 10 235 0.0 4.8 0.00 0.18 0.18 91 1010.9
20191018214645 10 236 0.0 4.8 0.00 0.18 0.18 91 1010.9
20191018214136 10 236 0.0 0.0 0.00 0.18 0.18 91 1010.8
20191018213636 11 236 0.0 0.0 0.00 0.18 0.18 91 1010.8
20191018213136 11 236 0.0 0.0 0.00 0.18 0.18 91 1010.8
20191018212636 11 236 0.0 0.0 0.00 0.18 0.18 91 1010.8
20191018212136 11 236 0.0 0.0 0.00 0.18 0.18 91 1010.9
20191018211631 11 236 0.0 6.4 0.00 0.18 0.18 91 1010.9
20191018211128 11 236 1.6 6.4 0.00 0.18 0.18 91 1010.8
20191018210627 11 181 3.2 9.7 0.00 0.18 0.18 90 1010.8
20191018210124 11 215 1.6 9.7 0.00 0.18 0.18 90 1010.8
20191018205618 11 217 0.0 4.8 0.00 0.18 0.18 90 1010.7
20191018205116 11 217 0.0 3.2 0.00 0.18 0.18 90 1010.7
20191018204616 11 217 0.0 3.2 0.00 0.18 0.18 90 1010.7
20191018204113 11 217 0.0 4.8 0.00 0.18 0.18 90 1010.8
20191018203550 12 217 0.0 4.8 0.00 0.18 0.18 90 1010.9
20191018203048 12 196 0.0 3.2 0.00 0.18 0.18 90 1010.9
20191018202543 12 240 0.0 4.8 0.00 0.18 0.18 89 1010.6
20191018202028 12 240 0.0 4.8 0.00 0.18 0.18 89 1010.6
20191018201519 12 240 0.0 1.6 0.00 0.18 0.18 89 1010.6
20191018201010 12 234 0.0 3.2 0.00 0.18 0.18 89 1010.6
20191018200505 12 234 0.0 3.2 0.00 0.18 0.18 89 1010.6
20191018195936 12 269 1.6 3.2 0.00 0.18 0.18 89 1010.7
20191018195408 12 256 1.6 4.8 0.00 0.18 0.18 88 1010.7
20191018194904 12 250 1.6 4.8 0.00 0.18 0.18 88 1010.7
20191018194404 12 294 1.6 4.8 0.00 0.18 0.18 88 1010.7
20191018193904 12 304 1.6 6.4 0.00 0.18 0.18 88 1010.7
20191018193348 13 218 1.6 6.4 0.00 0.18 0.18 88 1010.7
20191018192848 13 247 0.0 4.8 0.00 0.18 0.18 88 1010.6
20191018192346 13 303 0.0 6.4 0.00 0.18 0.18 88 1010.6
20191018191834 13 264 1.6 6.4 0.00 0.18 0.18 88 1010.6
20191018191327 13 281 1.6 4.8 0.00 0.18 0.18 88 1010.4
20191018190812 13 281 1.6 6.4 0.00 0.18 0.18 88 1010.4
20191018190310 13 299 1.6 6.4 0.00 0.18 0.18 88 1010.4
20191018185810 13 285 3.2 8.0 0.00 0.18 0.18 88 1010.3
20191018185308 13 286 3.2 9.7 0.00 0.18 0.18 88 1010.3
20191018184807 13 331 3.2 16.1 0.00 0.18 0.18 88 1010.3
20191018184306 13 283 3.2 16.1 0.00 0.18 0.18 89 1010.3
20191018183753 13 298 3.2 8.0 0.00 0.18 0.18 89 1010.3
20191018183249 13 275 1.6 8.0 0.00 0.18 0.18 89 1010.3
20191018182750 13 327 1.6 9.7 0.00 0.18 0.18 89 1010.3
20191018182250 13 247 1.6 12.9 0.00 0.18 0.18 90 1010.3
20191018181749 13 312 1.6 12.9 0.00 0.18 0.18 90 1010.3
20191018181244 13 315 1.6 11.3 0.00 0.18 0.18 90 1010.3
20191018180744 13 182 1.6 11.3 0.00 0.18 0.18 90 1010.3
20191018180235 13 298 1.6 8.0 0.00 0.18 0.18 90 1010.3
20191018175734 13 288 3.2 16.1 0.00 0.18 0.18 90 1009.9
20191018175235 13 182 3.2 16.1 0.00 0.18 0.18 91 1009.9
20191018174734 13 216 3.2 9.7 0.00 0.18 0.18 91 1009.9
20191018174233 13 229 1.6 6.4 0.00 0.18 0.18 91 1010.0
20191018173710 13 236 1.6 9.7 0.00 0.18 0.18 91 1010.0
20191018173204 13 215 1.6 16.1 0.00 0.18 0.18 91 1010.0
20191018172703 13 220 3.2 16.1 0.00 0.18 0.18 91 1010.1
20191018172154 13 244 1.6 9.7 0.03 0.18 0.18 91 1010.1
20191018171649 13 189 1.6 9.7 0.08 0.18 0.18 91 1010.1
20191018171148 13 243 1.6 9.7 0.13 0.18 0.18 91 1009.9
20191018170646 13 195 1.6 6.4 0.13 0.18 0.18 91 1009.9
20191018170145 13 322 0.0 4.8 0.15 0.18 0.18 90 1009.9
20191018165645 13 273 0.0 3.2 0.15 0.18 0.18 90 1010.0
20191018165147 14 286 0.0 0.0 0.15 0.18 0.18 90 1010.0
20191018164645 14 286 0.0 0.0 0.15 0.18 0.18 90 1010.0
20191018164145 14 286 1.6 9.7 0.15 0.18 0.18 89 1009.8
20191018163637 14 286 3.2 9.7 0.15 0.18 0.18 88 1009.8
20191018163138 15 284 4.8 14.5 0.15 0.18 0.18 88 1009.9
20191018162635 15 290 4.8 16.1 0.15 0.18 0.18 87 1009.9
20191018162133 15 299 6.4 19.3 0.15 0.15 0.15 85 1009.9
20191018161633 15 312 4.8 19.3 0.05 0.08 0.10 84 1010.0
20191018161133 16 294 3.2 8.0 0.05 0.05 0.05 83 1009.4
20191018160623 16 292 1.6 11.3 0.05 0.05 0.05 81 1009.5
20191018160119 16 236 0.0 11.3 0.03 0.05 0.05 80 1009.5
20191018155617 17 276 0.0 4.8 0.00 0.03 0.03 76 1008.9
20191018155117 17 271 0.0 6.4 0.00 0.03 0.03 74 1009.0
20191018154617 17 227 1.6 6.4 0.00 0.03 0.03 73 1009.0
20191018154117 17 215 4.8 16.1 0.00 0.03 0.03 72 1008.7
20191018153617 17 216 6.4 19.3 0.00 0.03 0.03 72 1008.7
20191018153117 17 223 6.4 19.3 0.00 0.03 0.03 72 1008.7
20191018152617 17 213 8.0 16.1 0.00 0.03 0.03 72 1008.7
20191018152117 17 214 8.0 22.5 0.00 0.03 0.03 71 1008.7
20191018151617 17 253 9.7 22.5 0.00 0.03 0.03 71 1008.7
20191018151117 17 174 8.0 19.3 0.00 0.03 0.03 72 1008.8
20191018150617 17 167 6.4 17.7 0.00 0.03 0.03 72 1008.8
20191018150109 17 258 6.4 14.5 0.00 0.03 0.03 73 1008.8
20191018145609 17 217 6.4 16.1 0.00 0.03 0.03 73 1008.9
20191018145109 17 252 6.4 16.1 0.00 0.03 0.03 73 1008.9
20191018144609 17 217 8.0 17.7 0.00 0.03 0.03 73 1008.9